[Iaude] MPEC D78: 2024 DZ [a=1.82,e=0.46,i=5.7,H=28.4]

mpec at cfa.harvard.edu mpec at cfa.harvard.edu
Mon Feb 19 22:17:51 EST 2024


M.P.E.C. 2024-D78                             Issued 2024 February 20, 03:16 UT

     The Minor Planet Electronic Circulars contain information on unusual
         minor planets, routine data on comets and natural satellites,
         and occasional editorial announcements.  They are published
    on behalf of Division F of the International Astronomical Union by the
          Minor Planet Center, Smithsonian Astrophysical Observatory,
                          Cambridge, MA 02138, U.S.A.
			  
             Prepared using the Tamkin Foundation Computer Network

                              MPC at CFA.HARVARD.EDU
            URL https://www.minorplanetcenter.net/    ISSN 1523-6714

                                    2024 DZ                                     


Observations:
     K24D00Z*1C2024 02 19.20146610 07 07.960+15 58 18.40               VED078G96
     K24D00Z 1C2024 02 19.21169810 07 41.220+15 59 56.60         19.27GVED078G96
     K24D00Z 1C2024 02 19.21681110 07 57.830+16 00 45.30               VED078G96
     K24D00Z KC2024 02 19.25892010 10 12.443+16 07 15.06         19.30GVED078I52
     K24D00Z KC2024 02 19.26067510 10 17.994+16 07 30.94         19.69GVED078I52
     K24D00Z KC2024 02 19.26242910 10 23.538+16 07 46.78         19.53GVED078I52
     K24D00Z KC2024 02 19.26417810 10 29.053+16 08 02.62         19.59GVED078I52
     K24D00Z  C2024 02 19.26887110 10 41.624+16 08 31.96         19.1 GVED078H01
     K24D00Z  C2024 02 19.27560810 11 02.824+16 09 31.71         19.8 GVED078H01
     K24D00Z  C2024 02 19.28243910 11 24.242+16 10 31.30         19.0 GVED078H01
     K24D00Z  C2024 02 19.29147610 11 52.515+16 11 49.80         19.3 GVED078H01
     K24D00Z KC2024 02 19.39127610 17 01.223+16 25 33.49         19.69GVED078I52
     K24D00Z KC2024 02 19.39335410 17 07.541+16 25 49.33         19.62GVED078I52
     K24D00Z KC2024 02 19.39544510 17 13.877+16 26 05.28         19.67GVED078I52
     K24D00Z KC2024 02 19.39751710 17 20.159+16 26 20.69         19.76GVED078I52
     K24D00Z hC2024 02 19.91412010 43 12.78 +17 20 41.6          19.7 GVED078L01
     K24D00Z hC2024 02 19.91879110 43 24.65 +17 21 09.5          19.7 GVED078L01
     K24D00Z hC2024 02 19.92269510 43 34.69 +17 21 30.4          19.8 GVED078L01

Observer details:
G96 Mt. Lemmon Survey.  Observers T. Beuden, G. J. Leonard.  Measurers T.
    Beuden, V. F. Carvajal, D. Fay, J. B. Fazekas, D. C. Fuls, A. R. Gibbs, A.
    D. Grauer, H. Groeller, J. K. Hogan, R. A. Kowalski, S. M. Larson, G. J.
    Leonard, D. Rankin, R. L. Seaman, F. C. Shelly, K. W. Wierzchos.  1.5-m
    reflector + 10K CCD.
H01 Magdalena Ridge Observatory, Socorro.  Observers W. H. Ryan, E. V. Ryan.
    Measurer W. H. Ryan.  2.4-m f/8.9 Ritchey-Chretien + CCD.
I52 Steward Observatory, Mt. Lemmon Station.  Observer J. B. Fazekas.
    Measurers E. C. Beshore, D. Fay, J. B. Fazekas, D. C. Fuls, A. R. Gibbs,
    A. D. Grauer, H. Groeller, J. K. Hogan, R. A. Kowalski, S. M. Larson, G.
    J. Leonard, D. Rankin, R. L. Seaman, F. C. Shelly, K. W. Wierzchos.  1.0-m
    prime focus + CCD.
L01 Visnjan Observatory, Tican.  Observer K. Korlevic.  1.0-m f/2.9 reflector
    + CCD.

Orbital elements:
2024 DZ                                                  Earth MOID = 0.0095 AU
Epoch 2024 Mar. 31.0 TT = JDT 2460400.5                 Veres                   
M  24.02283              (2000.0)            P               Q                  
n   0.40037310     Peri.  337.33126     -0.59419306     -0.80272734             
a   1.8231656      Node   149.05530     +0.75222435     -0.57689007             
e   0.4639538      Incl.    5.65063     +0.28476855     -0.15108500             
P   2.46           H   28.44          G   0.15           U   8                  
Residuals in seconds of arc
240219 G96  0.3-  0.1+    240219 I52  0.1-  0.0     240219 I52  0.2-  0.3-
240219 G96  0.5-  0.1+    240219 H01  0.0   0.0     240219 I52  0.3-  0.1-
240219 G96  0.4+  0.1+    240219 H01  0.1+  0.2+    240219 I52  0.4-  0.3-
240219 I52  0.0   0.2-    240219 H01  0.0   0.1-    240219 L01  0.3+  0.8-
240219 I52  0.0   0.2-    240219 H01  0.2+  0.1+    240219 L01  0.7-  0.9+
240219 I52  0.0   0.1-    240219 I52  0.3-  0.4-    240219 L01  0.4+  0.1-

Ephemeris:
2024 DZ                  a,e,i = 1.82, 0.46, 6                   q = 0.9773
Date    TT    R. A. (2000) Decl.     Delta      r    Elong.  Phase     V
2024 01 21    02 18 19.5 -16 49 59   0.1149  0.9834    86.4    86.9    26.8
...
2024 02 05    02 49 58.0 -15 26 49   0.05432 0.9786    80.8    96.1    25.5
...
2024 02 13    04 11 21.2 -10 32 49   0.02222 0.9891    94.3    84.5    23.1
...
2024 02 19    09 54 50.6 +15 28 54   0.01431 1.0026   175.2     4.7    19.6
2024 02 20    10 46 46.6 +17 32 13   0.01704 1.0053   169.2    10.6    20.3
2024 02 21    11 23 40.9 +18 27 52   0.02036 1.0081   161.6    18.0    20.9
...
2024 02 27    12 49 59.1 +18 47 41   0.04452 1.0274   146.2    32.4    23.1
...
2024 03 06    13 15 42.2 +18 13 04   0.07968 1.0592   146.2    31.4    24.4
...
2024 03 21    13 21 32.3 +17 03 51   0.1513  1.1339   153.9    22.8    25.7

M. P. C. Staff               (C) Copyright 2024 MPC           M.P.E.C. 2024-D78





More information about the Iaude mailing list